Tracking 19800 objects as of 23-Jul-2019
HD Live streaming from Space Station
objects crossing your sky now

ST5-A

Track ST5-A now!
10-day predictions
ST5-A is classified as:


NORAD ID: 28980
Int'l Code: 2006-008A
Perigee: 309.2 km
Apogee: 3,707.2 km
Inclination: 105.5 °
Period: 127.2 minutes
Semi major axis: 8379 km
RCS: 0.3025 m2 (medium)
Launch date: March 22, 2006
Source: United States (US)
Launch site: Pegasus launched from Western Range Air Space (WRAS)
aabbcc
Your satellite tracking list
Your tracking list is empty




NASA's NSSDC Master Catalog

Two Line Element Set (TLE):
1 28980U 06008A   19203.71450098  .00001081  00000-0  56820-4 0  9995
2 28980 105.5033 113.8386 2027660 249.3115  87.9777 11.31876647529784
Source of the keplerian elements: AFSPC